Location: Vesunti
(61.5000°N, 22.8333°E)
Time: 06:09:51
(UTC+00:00)

ALOS - Pass Details

Date: 17 February 2020
Orbit: 684 x 685 km, 97.8° (Epoch: 09 April)

Event Time Altitude Azimuth Distance (km) Brightness Sun altitude
Rises 03:30:44 0° 18° (NNE) 3,068 6.0 -19.3°
Reaches altitude 10° 03:33:04 10° 24° (NNE) 2,148 5.3 -19.0°
Maximum altitude 03:37:36 47° 99° (E) 909 3.3 -18.4°
Drops below altitude 10° 03:42:07 10° 174° (S) 2,132 4.8 -17.9°
Sets 03:44:26 0° 180° (S) 3,043 5.5 -17.6°
